Location: Nassau
(25.0830°N, 77.3500°W)
Time: 04:29:55
(UTC-04:00)

ISS - All Passes

Search period start: 26 October 2014 00:00
Search period end: 04 November 2014 23:00
Orbit: 412 x 416 km, 51.6° (Epoch: 26 October)

Date Brightness Start Highest point End Pass type
(mag) Time Alt. Az. Time Alt. Az. Time Alt. Az.
26 Oct - 11:29:29 10° SW 11:32:46 77° NW 11:36:05 10° NE daylight
26 Oct - 19:41:35 10° NNW 19:44:24 25° NE 19:47:13 10° ESE visible
26 Oct - 21:18:47 10° W 21:20:53 16° SW 21:22:59 10° SSW visible
27 Oct - 10:40:27 10° SSW 10:43:36 43° SE 10:46:46 10° NE daylight
27 Oct - 12:19:21 10° WNW 12:20:25 11° NW 12:21:29 10° NNW daylight
27 Oct - 18:53:17 10° N 18:55:02 14° NE 18:56:47 10° ENE visible
27 Oct - 20:28:44 10° WNW 20:31:46 33° SW 20:34:48 10° SSE visible
28 Oct - 09:51:58 10° S 09:54:27 20° SE 09:56:56 10° ENE daylight
28 Oct - 11:28:27 10° W 11:31:00 20° NW 11:33:33 10° N daylight
28 Oct - 19:39:14 10° NW 19:42:34 81° SW 19:45:52 10° SE visible
29 Oct - 10:38:29 10° WSW 10:41:37 41° NW 10:44:47 10° NNE daylight
29 Oct - 18:50:04 10° NNW 18:53:15 42° NE 18:56:25 10° ESE visible
30 Oct - 09:48:59 10° SW 09:52:17 84° SE 09:55:36 10° NE daylight
30 Oct - 18:01:13 10° N 18:03:50 21° NE 18:06:26 10° E daylight
30 Oct - 19:37:55 10° WNW 19:40:22 19° SW 19:42:48 10° S visible
31 Oct - 08:59:57 10° SSW 09:02:59 34° SE 09:06:02 10° ENE daylight
31 Oct - 10:38:04 10° WNW 10:39:43 13° NW 10:41:23 10° N daylight
31 Oct - 17:13:06 10° NNE 17:14:18 12° NE 17:15:29 10° ENE daylight
31 Oct - 18:47:56 10° NW 18:51:05 42° SW 18:54:14 10° SSE visible
01 Nov - 08:11:35 10° SSE 08:13:42 16° SE 08:15:50 10° E daylight
01 Nov - 09:47:25 10° W 09:50:11 24° NW 09:52:57 10° NNE daylight
01 Nov - 17:58:24 10° NW 18:01:43 79° NE 18:05:02 10° SE daylight
02 Nov - 07:57:28 10° SW 08:00:41 51° NW 08:03:55 10° NNE daylight
02 Nov - 16:09:11 10° NNW 16:12:15 34° NE 16:15:18 10° ESE daylight
02 Nov - 17:47:35 10° WSW 17:48:37 11° SW 17:49:39 10° SW visible
03 Nov - 07:07:57 10° SSW 07:11:14 65° SE 07:14:30 10° NE daylight
03 Nov - 15:20:20 10° N 15:22:40 18° NE 15:24:59 10° E daylight
03 Nov - 16:56:32 10° WNW 16:59:16 24° SW 17:01:59 10° S daylight
04 Nov - 06:18:56 10° S 06:21:48 27° SE 06:24:40 10° ENE daylight
04 Nov - 07:56:21 10° W 07:58:26 16° NW 08:00:32 10° N daylight
04 Nov - 16:06:35 10° NW 16:09:50 55° SW 16:13:04 10° SSE daylight
